Regional Weather Roundup
Issued by NWS Burlington, VT

Current Version | Previous Version | Graphics & Text | Print | Product List | Glossary Off
Versions: 1 2 3 4 5 6 7 8 9 10 11 12 13 14 15 16 17 18 19 20 21 22 23 24 25 26 27 28 29 30 31 32 33 34 35 36 37 38 39 40 41 42 43 44 45 46 47 48 49 50

000
ASUS41 KBTV 230110
RWRBTV
VERMONT REGIONAL WEATHER ROUNDUP
NATIONAL WEATHER SERVICE BURLINGTON VT
800 PM EST MON JAN 22 2018

NOTE: "FAIR" INDICATES FEW OR NO CLOUDS BELOW 12,000 FEET WITH NO
SIGNIFICANT WEATHER AND/OR OBSTRUCTIONS TO VISIBILITY.

* THESE REPORTS ARE NOT UNDER NWS QUALITY CONTROL AND/OR DO NOT
  REPORT WEATHER SUCH AS PRECIPITATION AND FOG.

VTZ001>019-230200-
_____VERMONT_____


CITY           SKY/WX    TMP DP  RH WIND       PRES   REMARKS
BURLINGTON     FRZ RAIN  26  23  88 SW5       30.10F WCI  20
MONTPELIER     MIX PCPN  28  27  96 S10       30.18F FOG     WCI  19
MORRISVILLE    CLOUDY    30  26  85 VRB7      30.13F WCI  23
ST. JOHNSBURY*   N/A     30  30 100 MISG      30.16F
LYNDONVILLE*   LGT SNOW  28  28  97 SE9       30.16S WCI  19
MIDDLEBURY*    MIX PCPN  26  25  94 S5        30.11F WCI  21
RUTLAND*       FLURRIES  31  28  89 SE20      30.11F WCI  19
SPRINGFIELD    MIX PCPN  29  29 100 S3        30.23F FOG
HIGHGATE*      LGT SNOW  25  24  96 S6        30.10F WCI  18
NEWPORT*       LGT SNOW  26  26  99 S6        30.13F WCI  20
BENNINGTON     CLOUDY    37  31  78 NE7       30.09F WCI  32
SUTTON*          N/A     27 N/A N/A MISG        N/A

_____LAKE CHAMPLAIN_____


CITY           SKY/WX    TMP DP  RH WIND       PRES   REMARKS
BURTON ISLAND*   N/A     27  27 100 S5          N/A  WCI  21

$$

NYZ007-026>031-035-052-083-087-230200-
_____NORTHERN NEW YORK_____


CITY           SKY/WX    TMP DP  RH WIND       PRES   REMARKS
PLATTSBURGH    CLOUDY    25  22  88 SE6       30.09F WCI  18
SARANAC LAKE   CLOUDY    29  29 100 NE5       29.93F WCI  24
MASSENA        FRZ RAIN  22  20  92 NE24      30.03F WCI   5
OGDENSBURG*    LGT SNOW  24  22  94 E15       29.96F WCI  11
POTSDAM*       MOCLDY    25  21  86 E12G17    29.98F WCI  14
WATERTOWN      MOCLDY    31  31 100 N7        29.89F FOG     WCI  24
FT DRUM        CLOUDY    39  37  91 SE15      29.87F WCI  30
ALBANY         LGT RAIN  34  31  88 CALM      30.10F FOG
GLENS FALLS    CLOUDY    29  29 100 CALM      30.12F

$$
NHZ002-005-011-230200-
_____NEW HAMPSHIRE_____


CITY           SKY/WX    TMP DP  RH WIND       PRES   REMARKS
LEBANON        MIX PCPN  30  28  92 CALM      30.22S FOG
KEENE          FLURRIES  31  28  89 NE5       30.23S WCI  26
MT WASHINGTON  SNOWSHWR  16  16 100 S37G44      N/A  VSB 0   WCI  -6
PLYMOUTH       LGT SNOW  26  25  94 SE6       30.27F WCI  20
WHITEFIELD     FRZ RAIN  32  25  75 S14G20    30.15F WCI  22

$$

_____REGIONAL QUEBEC LOCATIONS_____


CITY           SKY/WX    TMP DP  RH WIND       PRES   REMARKS
MONTREAL       LGT SNOW  19  16  86 NE25G33   30.12F BLWGSNOWWCI   2
QUEBEC CITY    CLOUDY    16   5  62 NE23G31   30.32F WCI  -2
SHERBROOKE     LGT SNOW  23  21  93 NE7       30.15F WCI  15

_____REGIONAL ONTARIO LOCATIONS_____


CITY           SKY/WX    TMP DP  RH WIND       PRES   REMARKS
OTTAWA         LGTSLEET  19  16  86 E17G24    29.99F DRFTSNOWWCI   4

______KEY______
VSB  - VISIBILITY IN MILES
WCI  - WIND CHILL INDEX
HX   - HEAT INDEX
$$
NNNN




USA.gov is the U.S. government's official web portal to all federal, state and local government web resources and services.